Location: Augirein
(42.9320°N, 0.9181°E)
Time: 20:28:40
(UTC+00:00)

NOSS 2-2 (C) - Pass Details

Date: 20 June 2021
Orbit: 454 x 1753 km, 63.3° (Epoch: 21 July)

Event Time Altitude Azimuth Distance (km) Brightness Sun altitude
Exits shadow 02:21:52 25° 260° (W) 955 4.2 -15.8°
Maximum altitude 02:23:20 39° 312° (NW) 706 3.9 -15.7°
Drops below altitude 10° 02:26:48 10° 24° (NNE) 1,711 7.1 -15.3°
Sets 02:29:14 0° 32° (NNE) 2,713 8.8 -15.1°
